Hurlburt Field, FL

3:41 PM CST on November 17, 2017 (GMT -0600)
Hurlburt

Weather History for KHRT - October, 2012

Change the Weather History Date:

Tuesday, October 23, 2012

  Actual Average Record
Temperature  
Mean Temperature 67 °F -  
Max Temperature 77 °F 75 °F 82 °F (2000)
Min Temperature 57 °F 56 °F 39 °F (2006)
Cooling Degree Days 2    
Growing Degree Days 17 (Base 50)    
Moisture  
Dew Point 63 °F    
Average Humidity 77    
Maximum Humidity 99    
Minimum Humidity 61    
Precipitation  
Precipitation 0.00 in - - ()
Sea Level Pressure  
Sea Level Pressure 30.08 in    
Wind  
Wind Speed 6 mph (East)    
Max Wind Speed 10 mph    
Max Gust Speed -    
Visibility 10 miles    
Events Rain    
Averages and records for this station are not official NWS values.
T = Trace of Precipitation, MM = Missing Value Source: NWS Daily Summary

Daily Weather History Graph

Daily Weather History Graph

Search for Another Location

Airport or City:

Trip Planner

Search our weather history database for the weather conditions in past years. The results will help you decide how hot, cold, wet, or windy it might be!

Date:

Astronomy

Oct. 23, 2012 Rise Set
Actual Time 6:54 AM CDT 6:06 PM CDT
Civil Twilight 6:30 AM CDT 6:31 PM CDT
Nautical Twilight 6:02 AM CDT 6:59 PM CDT
Astronomical Twilight 5:34 AM CDT 7:27 PM CDT
Moon 2:28 PM CDT (10/23) 1:10 AM CDT (10/23)
Length of Visible Light 12h 00m
Length of Day
11h 11m
Waxing Gibbous, 67% of the Moon is Illuminated
Oct 23
Waxing Gibbous
Oct 29
Full
Nov 6
Last Quarter
Nov 13
New
Nov 20
First Quarter

Hourly Weather History & Observations

Time (CDT) Temp. Dew Point Humidity Pressure Visibility Wind Dir Wind Speed Gust Speed Precip Events Conditions
12:55 AM 57.6 °F 57.0 °F 98% 30.09 in 10.0 mi NNE 5.8 mph - N/A   Clear
1:55 AM 60.8 °F 57.7 °F 90% 30.08 in 10.0 mi ENE 6.9 mph - N/A   Clear
2:55 AM 62.2 °F 57.7 °F 85% 30.06 in 10.0 mi ENE 5.8 mph - N/A   Clear
3:55 AM 61.2 °F 57.9 °F 89% 30.05 in 10.0 mi ENE 5.8 mph - N/A   Clear
4:55 AM 61.5 °F 59.9 °F 94% 30.06 in 10.0 mi NE 4.6 mph - N/A   Clear
5:55 AM 58.1 °F 57.2 °F 97% 30.08 in 10.0 mi NNE 4.6 mph - N/A   Clear
6:55 AM 57.9 °F 57.6 °F 99% 30.10 in 10.0 mi North 6.9 mph - N/A   Clear
7:55 AM 61.3 °F 60.1 °F 96% 30.12 in 10.0 mi NE 8.1 mph - N/A   Clear
8:55 AM 66.7 °F 61.7 °F 84% 30.13 in 10.0 mi ENE 6.9 mph - N/A   Clear
9:55 AM 70.9 °F 62.8 °F 75% 30.13 in 10.0 mi East 8.1 mph - N/A   Clear
10:30 AM 73.4 °F 64.4 °F 73% 30.13 in 10.0 mi East 5.8 mph - N/A   Light Drizzle
10:31 AM 73.4 °F 64.4 °F 73% 30.13 in 10.0 mi East 6.9 mph - N/A   Clear
10:55 AM 75.2 °F 64.2 °F 69% 30.13 in 10.0 mi ESE 5.8 mph - 0.00 in   Clear
11:09 AM 75.2 °F 64.4 °F 69% 30.13 in 10.0 mi ESE 6.9 mph - N/A   Light Drizzle
11:22 AM 75.2 °F 64.4 °F 69% 30.13 in 10.0 mi East 6.9 mph - N/A   Clear
11:24 AM 75.2 °F 64.4 °F 69% 30.12 in 10.0 mi East 6.9 mph - N/A   Light Drizzle
11:25 AM 75.2 °F 64.4 °F 69% 30.12 in 10.0 mi East 8.1 mph - N/A   Clear
11:29 AM 77.0 °F 64.4 °F 65% 30.12 in 10.0 mi ESE 6.9 mph - N/A   Light Drizzle
11:34 AM 75.2 °F 64.4 °F 69% 30.12 in 10.0 mi ESE 4.6 mph - N/A   Clear
11:55 AM 76.6 °F 63.9 °F 65% 30.11 in 10.0 mi East 5.8 mph - 0.00 in   Clear
12:03 PM 77.0 °F 64.4 °F 65% 30.11 in 10.0 mi East 5.8 mph - N/A   Light Drizzle
12:20 PM 77.0 °F 66.2 °F 69% 30.10 in 10.0 mi SSE 9.2 mph - N/A   Clear
12:55 PM 77.9 °F 64.9 °F 64% 30.08 in 10.0 mi SSE 9.2 mph - 0.00 in   Clear
1:55 PM 77.0 °F 65.8 °F 68% 30.06 in 10.0 mi ESE 8.1 mph - N/A   Clear
2:18 PM 77.0 °F 64.4 °F 65% 30.05 in 10.0 mi SSE 9.2 mph - N/A   Light Drizzle
2:28 PM 77.0 °F 62.6 °F 61% 30.04 in 10.0 mi SSE 10.4 mph - N/A   Clear
2:55 PM 77.7 °F 63.5 °F 61% 30.04 in 10.0 mi Variable 4.6 mph - 0.00 in   Clear
3:45 PM 77.0 °F 66.2 °F 69% 30.04 in 10.0 mi SE 8.1 mph - N/A   Light Drizzle
3:54 PM 77.0 °F 66.2 °F 69% 30.04 in 10.0 mi SE 6.9 mph - N/A   Clear
3:55 PM 77.0 °F 65.5 °F 67% 30.04 in 10.0 mi SE 8.1 mph - 0.00 in   Clear
4:39 PM 77.0 °F 64.4 °F 65% 30.04 in 10.0 mi SE 5.8 mph - N/A Rain Light Rain
4:48 PM 77.0 °F 62.6 °F 61% 30.04 in 10.0 mi SE 5.8 mph - N/A   Clear
4:55 PM 76.6 °F 63.3 °F 63% 30.04 in 10.0 mi SE 6.9 mph - 0.00 in   Clear
5:55 PM 74.5 °F 63.7 °F 69% 30.04 in 10.0 mi SE 3.5 mph - N/A   Clear
6:26 PM 73.4 °F 64.4 °F 73% 30.05 in 10.0 mi ESE 3.5 mph - N/A   Light Drizzle
6:36 PM 71.6 °F 64.4 °F 78% 30.06 in 10.0 mi Calm Calm - N/A   Clear
6:40 PM 71.6 °F 62.6 °F 73% 30.06 in 10.0 mi Calm Calm - N/A   Light Drizzle
6:48 PM 71.6 °F 64.4 °F 78% 30.06 in 10.0 mi North 3.5 mph - N/A   Clear
6:55 PM 68.2 °F 63.5 °F 85% 30.06 in 10.0 mi North 4.6 mph - 0.00 in   Clear
7:55 PM 65.3 °F 63.0 °F 92% 30.07 in 10.0 mi North 5.8 mph - N/A   Clear
8:55 PM 64.6 °F 62.6 °F 93% 30.08 in 10.0 mi North 3.5 mph - N/A   Mostly Cloudy
9:55 PM 62.6 °F 61.3 °F 96% 30.09 in 10.0 mi North 4.6 mph - N/A   Clear
10:55 PM 61.9 °F 60.6 °F 96% 30.08 in 10.0 mi North 4.6 mph - N/A   Clear
11:55 PM 61.2 °F 60.1 °F 96% 30.07 in 10.0 mi North 5.8 mph - N/A   Clear